RH
48 44 41 37 36 36 37 37 37 37 35 34 32 29 27 25 24 23 22 22 22 22 22 22 24 25 26 27 25 23 20 17 15 11 9 9 9 9 7 7 10 15 17 16 15 13 12 13 16 19 20 18 16 14 13 15 16 18 22 23 24 25 23 22 21 20 20 19 16 14 15 15 18 22 23 22 19 33 51 50 53 55 49 45 44 43 44 50
38 36 35 35 36 36 37 38 39 38 37 36 34 31 27 25 23 23 23 23 23 23 21 22 23 25 27 29 29 26 23 19 14 14 18 19 17 14 12 13 15 19 19 15 14 13 12 12 13 16 17 17 17 16 16 16 17 20 25 24 22 21 20 18 18 19 19 17 16 14 15 14 17 26 26 24 24 27 35 46 54 51 50 51 51 50 51 57
36 36 35 35 35 35 36 37 38 38 38 37 35 32 27 26 26 27 29 29 28 27 25 24 24 27 30 33 32 29 26 18 15 23 30 28 24 21 19 22 22 22 20 15 14 14 12 12 12 14 15 17 18 18 19 17 18 19 21 24 21 19 19 17 16 17 15 15 16 15 16 16 19 25 24 24 26 23 22 39 56 51 50 56 60 58 54 61
36 36 35 36 36 37 37 37 38 38 38 37 35 31 28 30 33 34 35 35 34 33 32 31 29 30 32 36 35 32 28 16 20 32 35 33 33 32 30 30 27 26 22 14 15 17 13 13 13 14 18 21 20 20 23 20 18 19 19 21 20 18 19 17 15 15 14 14 15 16 19 18 19 22 20 23 31 33 24 23 34 33 37 53 61 60 54 59
38 39 40 41 40 39 39 39 40 39 38 37 33 30 32 37 38 37 37 37 38 37 38 36 33 32 34 39 37 35 27 16 27 37 37 38 33 29 30 31 30 27 22 16 18 21 18 19 18 18 21 26 25 23 24 21 18 19 18 17 18 18 18 16 14 14 13 14 15 17 20 18 19 21 18 23 33 35 26 16 16 16 22 39 51 54 53 56
39 41 43 43 42 42 41 40 39 38 37 34 31 33 37 39 37 35 35 38 40 40 42 40 38 34 36 40 37 36 27 19 32 38 37 38 27 20 25 30 29 25 21 16 19 22 21 23 22 22 27 31 32 29 25 22 20 21 19 16 16 17 16 15 14 14 13 16 19 18 18 17 23 24 17 23 29 22 18 16 14 17 21 25 37 47 46 47
38 40 41 41 40 40 39 39 37 37 36 32 32 37 39 37 35 34 35 39 42 43 42 41 41 37 38 40 36 36 31 25 28 26 24 25 18 18 25 28 26 23 22 17 17 21 21 22 22 24 32 34 33 33 28 24 24 25 24 21 17 15 16 15 14 14 14 17 18 15 16 18 22 22 17 20 23 18 18 21 17 21 26 25 34 40 32 31
38 38 38 38 36 36 37 36 35 36 35 32 37 41 41 40 42 42 40 42 45 46 43 40 40 37 38 37 34 36 34 27 24 23 23 20 18 24 27 25 24 23 22 17 17 20 19 21 22 24 31 31 29 30 29 28 27 29 29 26 23 19 17 16 14 15 14 14 14 15 17 18 18 17 17 18 18 17 18 22 21 22 25 24 27 28 25 28
38 38 37 35 34 34 34 33 35 34 31 33 38 39 38 41 48 51 47 44 45 47 44 42 39 37 38 39 40 41 33 26 27 30 30 26 26 30 28 23 24 24 22 19 18 20 19 20 21 21 26 25 24 24 24 29 29 28 29 27 27 25 21 19 17 15 15 15 14 18 20 18 17 16 17 16 16 16 15 17 20 25 28 22 19 19 21 28
37 36 36 33 31 32 32 33 34 31 30 35 38 36 35 41 50 54 50 47 47 48 47 47 45 44 46 46 47 42 30 30 37 38 32 32 34 31 27 25 25 23 23 20 17 20 18 18 19 19 22 22 23 24 25 31 30 25 26 26 27 26 24 22 20 17 15 16 15 19 22 19 17 18 19 17 15 15 14 15 18 28 31 22 18 17 18 23
35 34 34 32 31 30 31 33 32 29 31 37 36 33 33 39 49 54 51 50 52 53 55 57 58 59 56 56 58 46 32 33 41 44 40 41 40 32 27 27 26 24 24 19 16 20 18 18 19 19 23 23 23 23 23 27 25 22 24 27 28 26 25 24 23 21 18 16 16 17 19 18 17 18 19 16 15 15 15 15 17 26 29 22 19 17 18 18
31 31 30 29 30 29 30 33 30 29 35 37 35 33 34 38 48 53 52 53 56 58 60 62 65 66 61 60 60 49 39 36 35 37 39 40 37 32 28 27 27 26 25 22 20 21 20 19 19 20 22 22 23 23 22 23 21 22 25 30 33 29 27 25 23 22 19 16 14 15 18 18 17 16 16 15 15 16 15 16 17 25 30 26 20 18 19 15
24 25 25 26 27 27 31 31 28 32 38 37 34 32 34 39 49 54 55 57 58 60 61 63 64 67 69 60 49 44 43 42 38 36 36 36 35 32 29 26 25 27 28 26 24 23 21 20 21 23 21 21 23 22 22 21 21 24 27 31 33 32 29 25 23 21 19 18 13 15 21 20 17 14 14 14 14 15 17 17 18 29 41 41 33 28 24 19
22 22 22 22 24 26 30 30 29 36 40 37 33 34 35 41 49 54 57 57 58 60 61 64 66 70 74 57 40 44 43 40 41 38 36 34 32 30 28 27 25 25 28 28 27 26 23 21 23 23 21 22 21 20 24 25 29 32 30 33 35 34 30 23 24 23 21 19 13 16 22 20 16 14 13 13 13 15 18 20 25 37 48 50 45 39 32 28
24 21 20 21 23 26 30 29 31 38 41 37 33 34 36 39 45 52 55 54 56 60 57 62 67 71 77 55 35 42 41 36 36 36 37 32 29 28 25 25 24 24 25 26 28 26 22 21 24 24 21 22 20 24 31 32 43 45 34 37 41 35 28 23 24 24 21 18 14 17 22 19 16 14 13 13 12 14 18 23 36 47 48 49 47 42 37 32
26 20 18 19 21 26 30 29 34 41 41 38 36 36 39 41 44 49 51 52 56 55 53 63 67 71 78 57 34 38 39 35 33 34 37 32 30 29 26 25 23 22 22 23 26 24 22 22 23 23 20 23 25 30 34 37 52 56 42 42 43 36 32 28 25 22 20 18 16 18 20 19 17 15 13 13 12 14 18 23 42 56 52 51 50 45 40 35
25 18 16 17 19 25 29 31 39 44 41 40 37 36 40 41 42 45 49 54 54 51 57 65 68 73 68 45 33 38 37 33 32 33 34 32 31 29 29 30 26 24 23 22 24 22 23 22 22 27 26 28 34 37 38 39 47 51 46 48 47 40 37 35 28 20 19 19 18 18 19 18 17 16 14 13 12 14 19 21 36 56 57 53 52 49 47 44
25 19 16 15 19 25 30 35 43 46 44 42 40 39 43 42 43 50 54 53 48 53 68 65 65 69 49 31 37 42 35 31 31 32 32 31 30 29 28 30 29 27 22 22 22 21 24 22 24 34 35 32 36 39 38 36 40 44 47 56 57 49 42 39 33 24 21 21 19 20 20 18 18 19 17 13 12 16 19 17 25 46 58 58 55 55 56 56
29 22 17 14 19 26 32 41 47 48 47 45 43 43 44 42 45 52 51 49 48 56 65 59 60 62 43 34 42 42 34 30 31 31 32 30 28 28 26 27 29 25 21 24 25 22 24 25 29 37 39 36 35 35 34 33 37 39 40 49 55 52 46 42 36 28 23 21 21 21 20 19 18 21 22 16 13 16 18 17 19 32 50 57 56 54 55 59
32 24 17 13 20 27 35 47 51 52 53 52 48 44 49 58 63 63 51 45 52 57 56 54 59 58 47 44 42 40 35 30 31 31 31 31 29 28 25 24 26 24 26 29 27 23 23 34 40 40 39 36 33 33 34 32 31 30 32 37 40 42 43 39 34 30 25 26 28 23 21 21 19 21 23 17 17 22 21 20 20 24 35 45 51 49 45 46
32 24 15 13 21 29 40 51 54 56 59 62 60 60 76 86 84 82 69 52 45 49 49 48 53 50 44 43 39 40 41 35 32 31 32 32 30 28 25 25 28 31 34 31 29 26 26 37 41 38 36 33 33 35 33 31 29 30 32 34 35 36 36 33 32 30 25 31 35 29 28 27 23 23 23 18 22 27 24 22 22 21 24 30 36 38 34 30
31 21 13 14 22 32 45 55 57 59 64 66 69 79 94 94 87 88 90 79 54 40 44 45 45 43 38 39 41 42 45 44 36 29 31 31 29 29 25 26 31 34 35 34 40 41 37 38 35 32 33 31 34 34 33 32 31 33 34 37 40 35 32 31 32 31 25 32 40 35 32 31 27 26 25 23 23 23 20 19 20 19 23 27 27 27 24 21
29 18 13 16 25 38 51 59 59 62 67 68 73 85 93 90 89 89 92 96 74 41 38 45 41 38 37 38 44 45 43 47 43 32 30 31 30 29 26 29 34 34 33 35 40 43 43 40 31 29 30 28 31 32 32 33 35 38 36 40 43 34 33 36 34 32 27 29 35 33 33 32 30 29 26 23 20 18 16 17 17 17 20 22 21 22 22 19
28 17 12 17 31 47 58 62 62 66 70 72 78 86 91 89 88 91 89 92 88 56 36 42 40 37 38 39 47 50 44 47 47 36 31 34 32 30 28 29 33 36 35 35 36 37 40 35 26 26 28 27 29 31 32 34 40 44 38 37 39 34 34 36 33 31 28 26 27 31 36 33 29 29 27 23 22 19 16 18 21 20 18 18 20 21 20 18
28 18 11 20 41 55 60 63 67 72 72 75 82 83 88 88 84 91 87 77 79 59 35 38 40 37 38 41 49 52 50 49 46 38 35 35 35 32 30 28 31 39 39 35 35 36 35 29 24 26 29 29 30 33 34 36 43 47 41 34 33 33 33 33 31 32 36 34 27 32 42 40 33 30 26 23 25 23 19 23 26 21 20 24 30 31 25 20
28 17 12 27 49 57 59 64 70 75 74 78 82 80 83 84 82 89 86 78 73 52 37 39 40 40 38 41 50 54 57 51 39 38 38 34 34 34 34 32 30 37 40 36 36 38 34 28 27 30 31 32 32 34 34 34 40 46 42 34 31 31 32 32 30 33 45 44 29 29 41 47 45 37 31 28 26 24 21 24 27 22 22 24 29 33 31 26
27 16 16 38 53 54 58 65 71 76 80 82 80 79 80 78 80 81 77 80 70 46 41 43 38 43 42 41 52 59 63 55 41 38 35 33 34 31 37 40 34 33 32 34 41 41 35 30 31 32 31 34 33 32 33 31 38 45 40 33 32 32 32 33 32 34 42 39 31 28 30 42 48 37 31 31 29 27 24 22 23 21 22 23 22 23 24 23
25 15 23 47 56 55 60 66 73 79 82 82 77 76 78 78 77 78 73 65 51 41 45 45 40 45 46 48 58 63 61 58 54 42 30 33 36 29 35 41 38 36 29 32 45 41 31 30 33 32 31 35 34 29 29 29 35 38 32 29 30 31 32 30 31 35 35 35 37 32 27 41 55 43 30 29 28 28 26 22 20 19 18 19 19 17 16 18
24 19 32 52 59 60 63 66 73 78 78 76 73 72 76 76 69 75 79 57 42 48 51 49 49 49 51 57 63 65 60 56 55 45 34 37 38 32 36 36 34 39 34 31 39 36 28 28 29 31 32 33 31 27 25 27 29 28 26 27 26 28 30 31 35 34 35 45 46 35 29 40 54 49 33 30 31 27 26 23 19 17 16 16 16 16 16 21
24 26 39 54 63 63 65 69 71 73 72 71 73 73 73 73 73 86 87 61 49 54 51 53 56 53 61 71 71 68 65 61 52 46 45 43 40 38 38 37 35 43 48 44 42 36 29 27 28 30 30 28 28 27 25 24 24 24 25 26 28 32 32 34 38 34 40 57 50 32 30 35 45 47 33 30 36 30 25 24 20 17 15 15 15 14 15 20
26 33 46 56 65 67 68 70 69 70 70 71 75 74 67 66 81 97 80 55 58 63 59 65 64 64 75 83 85 77 72 71 58 53 57 52 51 50 46 51 52 56 65 60 55 50 38 37 38 32 27 26 27 28 27 25 25 26 27 28 36 43 40 38 39 41 53 60 45 30 31 33 40 43 33 29 32 29 25 23 22 21 16 14 15 14 13 14
28 38 51 57 66 73 73 72 72 71 72 76 75 70 68 69 83 93 72 58 70 70 68 74 73 76 85 88 92 86 78 76 64 59 66 63 65 64 59 65 66 66 76 71 65 63 52 47 42 34 29 25 29 35 32 28 27 28 32 38 45 50 55 56 51 51 57 51 36 29 31 35 35 33 32 28 23 22 24 23 21 20 18 14 13 14 14 13
28 42 56 58 68 76 75 75 77 74 75 78 71 66 78 85 83 82 76 75 76 67 66 76 77 79 87 91 92 84 76 75 66 64 68 68 74 74 66 66 61 61 76 80 73 70 67 60 44 37 37 29 29 38 40 38 35 33 35 43 49 51 62 70 61 54 54 46 35 28 31 38 32 26 26 22 19 18 16 18 17 16 16 14 13 13 13 14
27 46 61 60 69 78 78 80 79 78 77 72 68 73 84 88 81 76 80 80 74 70 74 80 82 82 87 92 87 74 70 73 69 66 69 72 81 85 78 70 61 59 72 82 77 73 81 79 55 42 40 34 31 33 36 40 37 32 28 34 44 47 53 62 59 54 53 49 37 29 41 48 35 30 28 17 15 17 13 14 14 13 14 12 13 13 13 16
31 48 64 64 71 79 80 82 82 81 76 67 73 86 92 94 89 82 82 79 76 81 81 78 83 91 91 88 80 67 63 70 70 71 77 78 83 89 83 75 67 63 72 84 79 71 78 77 55 40 35 32 32 30 27 32 37 34 25 28 40 39 38 46 50 51 53 53 45 37 50 54 36 30 31 23 18 16 14 16 14 14 14 12 13 13 12 15
41 48 65 72 76 79 81 83 84 82 75 72 83 93 93 92 87 85 84 76 75 83 87 84 88 98 96 86 79 66 61 68 70 77 84 77 76 80 76 72 67 61 66 78 81 73 72 68 51 41 37 30 30 31 26 30 42 45 33 32 37 29 28 40 47 46 49 57 59 49 43 39 29 25 23 22 25 21 18 20 18 16 14 13 14 13 13 14
45 53 69 77 79 81 82 82 84 82 74 78 91 95 91 81 75 86 85 71 71 83 94 98 92 92 95 91 85 72 70 77 75 78 83 75 76 75 69 68 63 57 57 63 72 70 63 61 52 40 38 33 28 27 25 25 35 48 46 39 37 31 30 39 45 46 50 61 66 56 45 34 30 35 30 20 22 25 23 22 21 18 16 16 16 12 12 14
44 60 72 78 80 81 82 83 83 81 77 84 97 98 93 80 68 74 74 65 74 87 97 101 93 88 93 97 93 78 79 89 83 80 82 78 78 71 63 64 58 55 53 49 62 67 56 58 60 48 45 50 44 35 36 33 26 32 42 43 49 56 52 44 45 50 55 66 69 60 56 45 33 39 38 22 18 22 22 21 22 20 17 17 16 12 12 13
48 66 73 79 82 79 83 86 79 75 81 93 100 95 92 87 72 67 68 69 79 91 99 99 92 91 93 95 94 84 83 89 86 87 87 79 77 70 62 58 53 54 54 48 58 68 62 65 72 64 59 64 61 53 58 56 37 29 34 44 56 63 61 55 56 57 52 64 75 65 62 61 46 39 34 25 22 20 18 19 20 20 19 16 15 13 12 12
50 69 77 79 81 81 85 85 78 80 90 97 98 93 91 87 75 65 67 73 80 89 98 99 94 96 95 92 93 90 88 88 86 92 93 78 73 76 68 57 53 55 54 50 54 60 64 73 79 73 63 61 61 62 64 56 47 44 43 54 61 55 56 61 61 56 47 63 84 73 68 74 61 43 31 24 26 23 19 20 19 19 19 14 14 14 12 12
53 73 79 76 81 86 83 82 85 92 100 98 95 93 87 81 77 70 65 71 78 78 85 95 97 97 96 93 93 91 91 90 86 92 98 83 74 80 73 58 53 53 55 60 60 58 66 80 86 79 68 62 57 56 56 46 46 53 49 52 55 49 59 70 69 64 50 58 79 72 68 70 58 49 42 29 29 29 25 26 27 25 23 21 23 21 17 14
58 78 77 71 84 88 82 89 97 98 102 96 87 86 81 79 86 79 67 71 79 80 84 93 97 96 97 98 98 93 92 92 86 90 98 87 76 75 68 61 56 50 58 72 67 60 72 89 93 85 74 65 52 46 47 43 48 59 57 54 50 51 65 74 79 80 63 58 69 67 63 57 51 60 57 40 37 36 30 34 40 38 34 35 38 35 30 20
60 79 71 66 82 83 77 90 97 95 98 88 77 77 73 79 89 81 71 73 79 87 94 96 97 97 94 95 96 91 90 91 86 89 95 87 73 63 57 62 64 57 68 85 79 72 83 92 91 87 78 65 54 52 52 48 52 66 71 65 59 59 60 61 72 79 71 67 69 70 71 59 53 63 57 42 39 37 34 37 44 48 44 40 41 42 40 29
59 76 63 54 70 76 76 91 97 95 92 82 81 81 70 72 79 75 75 74 72 86 98 95 91 90 90 95 97 92 89 91 89 87 92 91 77 61 56 64 71 72 75 79 79 81 90 92 89 93 91 76 66 69 71 68 68 77 82 73 65 64 58 58 69 72 71 72 67 73 80 63 50 54 47 37 36 36 37 36 40 50 48 41 44 50 47 36
55 66 53 43 61 75 78 86 92 94 93 89 91 89 79 74 69 64 71 70 65 74 82 80 79 85 95 98 93 88 83 87 92 88 90 94 79 62 62 65 71 79 72 62 67 79 91 95 90 92 98 92 82 79 81 82 78 79 80 70 63 69 67 65 69 69 72 78 74 77 79 59 44 43 39 38 39 37 37 35 38 47 46 42 50 58 58 45
56 66 59 49 58 69 68 69 77 89 96 97 96 91 89 84 69 60 63 66 66 63 66 78 84 87 94 89 80 79 74 76 89 91 92 98 86 68 63 62 69 77 68 58 66 79 94 100 90 85 88 83 75 72 75 81 78 74 73 65 59 66 67 62 64 70 77 81 78 72 66 57 50 44 41 42 41 37 36 38 42 45 46 47 50 56 64 58
57 74 77 65 61 66 64 64 77 90 93 95 97 94 92 87 77 69 64 63 66 64 70 91 92 78 78 79 79 83 76 72 82 88 92 98 88 71 61 60 67 72 65 63 69 80 98 102 91 90 89 78 72 71 69 73 77 74 69 64 60 62 64 60 60 70 75 73 73 69 63 61 55 45 44 42 38 37 38 38 39 40 44 46 44 51 64 65
53 70 79 73 72 77 72 67 79 93 93 94 98 95 89 86 84 81 74 69 67 66 74 88 83 69 71 77 84 91 85 78 81 80 83 92 86 75 71 67 67 66 66 70 71 77 93 98 92 95 93 82 81 78 72 74 79 77 71 67 62 60 64 59 54 65 71 66 69 70 64 62 52 43 43 39 35 37 34 33 35 38 45 44 41 52 68 69
59 71 77 79 82 82 77 76 83 92 93 91 93 90 86 89 88 81 79 81 80 74 73 78 76 71 75 77 84 93 89 84 86 79 75 84 84 81 86 81 70 68 75 83 79 73 84 93 92 93 91 84 84 83 83 88 88 81 76 72 65 62 65 59 54 63 68 65 68 66 62 64 55 43 41 37 37 41 40 42 45 44 46 43 38 51 70 73
72 82 85 90 93 87 84 84 86 92 92 86 83 81 84 90 90 84 82 87 92 86 75 76 77 74 78 81 85 91 84 79 86 81 75 82 82 80 89 89 80 80 85 93 90 76 80 89 87 88 92 90 89 89 89 92 91 88 85 79 70 68 70 65 61 67 66 62 65 66 67 68 54 44 51 53 51 52 48 49 50 42 42 44 38 44 65 74
79 85 87 96 99 92 88 85 86 92 93 89 85 82 86 88 86 89 89 82 85 88 79 78 81 80 83 84 83 83 74 69 76 73 68 77 76 71 77 78 79 86 89 93 94 83 84 90 83 84 93 90 87 92 92 87 85 85 85 84 79 74 74 71 70 71 62 51 55 61 64 61 53 58 76 78 69 65 55 48 46 40 40 45 40 38 53 67
72 78 85 96 98 90 89 88 88 87 84 86 88 86 87 87 83 91 94 80 73 77 74 74 81 87 90 85 76 69 62 60 66 63 61 67 65 61 66 66 68 80 87 91 96 92 88 88 83 85 93 88 85 92 93 85 83 82 80 85 89 85 82 81 80 79 70 57 57 59 58 62 72 84 93 92 86 84 74 59 50 45 43 42 37 36 45 58
Wind_Speed
13 13 13 14 15 16 17 18 18 18 19 19 20 21 21 22 22 22 22 22 22 22 21 20 20 20 19 19 19 20 20 18 15 14 15 14 14 14 12 10 9 8 8 9 10 12 13 13 14 14 13 12 14 17 19 18 15 12 5 6 9 7 7 7 7 7 6 5 7 10 12 8 4 6 13 15 13 17 16 12 13 13 13 13 12 12 12 14
13 13 14 15 16 17 17 17 18 18 19 20 21 22 23 24 24 24 24 24 23 23 23 22 21 21 20 20 19 20 20 18 18 15 12 10 9 8 6 6 5 5 6 7 7 7 9 10 12 12 12 11 11 13 15 16 17 11 3 6 11 7 7 11 11 9 8 8 9 12 15 12 7 10 16 10 10 18 15 12 14 12 10 12 12 11 12 16
13 13 14 15 16 16 17 18 18 19 20 21 23 24 26 27 27 26 25 25 25 25 25 24 22 21 21 20 19 20 19 19 15 7 4 6 5 3 0 2 3 4 6 7 6 5 4 6 8 9 11 10 10 12 12 13 15 12 7 7 10 6 6 14 17 16 16 14 10 12 14 11 10 14 15 10 10 13 12 11 12 11 11 11 12 13 13 17
13 13 14 15 15 16 17 18 19 20 21 22 24 26 27 27 26 25 24 24 24 24 24 25 24 21 20 19 19 17 16 16 6 5 7 7 5 3 1 2 3 4 6 7 7 5 3 3 4 6 8 7 9 10 9 13 11 7 10 9 7 8 6 14 22 23 23 20 14 12 11 11 15 17 13 13 10 5 11 19 15 13 17 16 16 17 16 18
14 14 15 15 15 16 17 19 20 21 22 24 26 28 28 26 26 25 24 23 23 22 23 24 24 22 19 17 16 13 11 9 2 8 3 1 2 4 4 4 4 4 5 6 6 5 4 2 1 3 5 3 5 7 6 12 9 3 10 13 8 10 7 14 25 26 26 24 17 12 10 12 17 17 15 14 11 6 13 21 17 19 23 19 19 19 18 19
14 14 15 16 17 18 19 20 21 22 23 25 27 27 25 24 24 24 23 23 22 22 22 22 22 21 19 16 14 9 5 2 4 5 4 6 8 9 7 6 4 4 4 4 4 4 3 2 1 2 3 1 4 6 4 8 8 4 8 10 8 10 8 14 25 25 25 21 14 12 12 12 15 13 21 20 15 14 19 22 20 23 26 20 19 20 18 18
14 15 15 17 18 18 19 20 21 22 24 26 26 25 23 23 23 22 20 18 17 18 19 20 21 20 19 15 12 8 7 9 8 9 12 14 14 11 8 6 4 4 4 3 4 3 3 3 2 1 1 0 3 5 4 5 7 6 5 5 6 9 9 13 22 25 25 21 18 19 15 12 15 14 21 25 21 18 18 24 26 26 26 22 22 21 18 20
15 15 16 17 18 19 19 20 21 23 26 27 26 25 25 25 24 23 21 16 13 13 14 16 17 18 18 15 11 9 10 11 9 11 14 15 13 10 7 7 6 5 4 3 3 4 3 4 5 2 1 0 1 1 3 5 6 5 4 5 7 6 7 10 15 22 26 25 25 22 15 15 21 19 19 25 28 26 21 22 26 28 28 26 26 23 22 24
16 16 17 19 20 20 21 21 22 24 27 27 26 25 26 26 25 24 22 18 14 12 12 12 13 15 16 15 12 9 8 8 7 8 10 11 11 9 8 8 7 6 4 2 2 4 3 4 5 5 2 3 3 4 4 2 3 2 3 5 6 8 10 9 10 15 23 26 25 18 12 19 25 20 17 27 33 34 32 27 27 31 32 31 30 28 27 26
16 17 18 19 20 21 21 22 23 25 26 25 24 25 26 25 24 23 21 18 16 15 14 12 11 12 14 15 10 4 6 7 6 6 7 9 11 11 10 8 8 8 6 3 0 3 5 5 6 6 5 4 3 5 4 2 3 6 6 6 6 9 12 10 9 13 15 18 23 17 11 19 22 13 11 23 29 34 37 32 31 33 35 35 34 33 31 30
17 17 17 19 20 20 21 22 24 25 25 23 24 24 24 23 22 21 19 18 17 16 15 14 13 12 14 16 8 2 6 8 6 5 6 9 11 11 10 8 7 7 7 4 1 2 6 6 7 6 3 3 4 5 5 4 7 11 7 6 8 8 10 10 10 14 11 10 22 20 11 14 13 11 14 17 21 29 36 36 34 34 36 37 37 37 36 36
16 16 16 18 19 20 21 23 24 24 23 22 23 23 23 21 19 18 17 16 17 16 16 16 15 14 14 16 12 6 9 8 7 7 8 9 10 11 10 8 7 8 8 7 4 4 7 7 7 6 3 4 5 3 4 7 10 10 5 3 6 6 6 9 9 13 8 6 17 15 7 9 10 16 21 17 18 24 31 36 35 34 38 41 41 41 41 41
16 16 15 17 18 19 21 23 25 23 21 21 22 22 21 19 17 16 15 15 15 15 16 18 17 15 14 14 9 7 8 7 5 5 7 9 12 14 15 11 9 9 10 11 9 8 9 9 8 8 7 5 3 4 8 10 9 7 3 2 3 4 6 9 9 11 7 7 14 13 6 11 14 22 21 17 21 21 25 31 31 32 36 39 42 43 44 43
17 16 15 16 17 19 21 24 25 22 20 21 21 20 19 17 16 15 14 15 15 15 19 20 17 14 13 9 6 8 9 9 7 6 6 7 9 11 15 16 13 11 12 12 12 11 12 12 10 8 8 6 6 8 9 7 4 3 3 2 2 4 5 6 7 8 7 10 15 14 8 11 15 22 22 21 23 21 21 25 26 31 35 37 41 42 43 43
16 16 15 15 17 19 21 24 24 20 20 20 20 20 18 16 16 14 13 14 15 17 21 20 15 13 14 8 5 7 8 7 7 9 8 6 6 5 5 10 15 15 15 14 14 14 14 12 10 6 5 6 4 5 5 4 3 2 3 3 2 5 5 3 5 9 9 9 12 13 9 11 13 19 22 22 25 23 21 23 25 30 35 37 40 41 43 43
16 15 15 15 17 18 20 23 22 19 19 19 20 19 15 15 15 12 12 14 16 19 20 15 13 11 10 7 3 6 8 7 8 9 7 7 6 5 4 3 5 12 15 14 13 14 13 10 8 5 3 3 2 1 3 3 4 2 2 4 2 4 3 3 5 7 9 5 6 10 9 11 10 13 17 19 26 27 21 20 23 29 33 36 39 40 42 42
16 15 15 15 16 17 20 22 20 19 18 18 20 17 12 13 12 8 9 13 15 17 13 10 14 11 4 4 5 11 12 7 8 7 4 6 6 5 5 4 4 2 7 8 9 9 8 5 3 3 2 1 2 3 2 3 5 2 1 2 2 2 2 2 4 3 5 5 6 8 10 13 8 7 16 20 25 26 22 20 23 29 32 35 38 39 41 42
16 15 15 15 15 17 20 20 18 18 18 18 20 18 12 10 7 4 8 13 14 11 7 9 13 6 2 8 11 15 14 8 7 5 4 6 6 6 6 5 4 3 2 2 4 3 3 3 2 1 2 0 2 4 3 4 2 1 1 1 2 2 2 2 3 2 2 3 7 7 12 16 9 5 13 22 25 24 25 25 24 29 33 34 36 37 38 39
16 15 16 15 15 17 18 18 16 16 18 18 20 17 10 7 3 3 10 13 10 5 3 8 10 1 5 14 16 15 12 7 5 2 4 8 6 5 7 7 6 4 3 1 2 1 2 1 2 1 3 3 3 4 5 2 3 2 1 2 2 3 3 3 5 4 4 2 6 8 13 14 10 7 9 17 25 24 25 26 24 27 31 33 35 37 38 38
17 15 15 14 15 17 17 16 14 15 17 18 22 18 13 13 5 4 15 12 6 6 6 9 9 7 10 14 16 15 9 5 4 1 3 6 4 6 6 4 4 3 2 0 2 3 2 0 2 4 3 1 1 3 4 1 2 2 2 2 2 3 4 4 5 5 5 3 5 7 11 11 8 8 8 15 20 18 19 20 22 25 28 31 34 37 39 39
18 16 15 14 15 17 16 14 13 14 14 15 21 18 15 15 6 6 18 11 6 11 10 7 7 8 9 11 15 17 10 5 5 3 3 5 4 5 4 1 2 2 3 1 2 3 3 2 5 2 2 2 4 4 2 1 3 3 3 4 4 4 5 4 6 8 6 3 6 8 10 9 6 6 9 14 12 11 17 18 20 26 27 30 33 37 38 36
19 16 14 14 15 16 14 12 11 12 12 12 16 16 13 12 6 7 12 9 9 10 7 8 6 6 9 9 14 17 12 7 6 4 4 4 5 3 1 2 2 1 3 2 2 4 3 5 6 3 5 4 5 4 1 1 2 3 2 2 4 3 4 5 5 7 5 2 5 9 10 7 5 6 9 11 10 13 22 24 26 29 28 29 32 35 35 34
19 16 14 14 15 15 13 10 10 11 10 10 14 14 11 9 8 9 9 8 11 8 6 8 6 8 9 7 13 17 11 6 6 6 6 5 5 3 1 2 2 1 1 1 2 1 3 5 3 5 6 3 2 2 3 2 1 2 2 1 4 1 1 4 3 6 7 4 6 8 9 7 4 6 7 12 16 18 23 26 28 30 30 32 35 37 37 37
18 16 14 15 14 13 12 8 9 11 8 8 11 11 9 9 9 10 9 6 6 6 6 6 6 7 7 7 13 14 8 8 11 10 8 8 6 3 3 3 3 1 3 5 5 5 7 6 3 2 4 4 2 1 3 2 2 3 4 4 4 2 3 5 4 5 7 8 7 5 8 8 5 6 6 9 14 17 20 20 21 26 30 34 36 39 42 43
18 15 14 15 13 12 12 7 8 12 7 5 9 9 8 10 10 11 8 2 3 6 6 5 5 5 6 7 12 15 12 12 13 12 11 9 6 4 4 3 3 3 6 5 4 6 8 7 6 5 3 4 3 2 3 5 2 3 4 7 8 6 6 6 4 4 4 6 5 3 5 7 3 6 8 7 7 10 14 13 15 24 29 29 31 35 41 44
17 15 14 14 12 12 12 7 8 12 6 3 8 10 8 9 10 10 5 2 2 5 5 5 3 4 6 5 12 20 12 6 8 11 11 11 10 8 5 2 2 3 5 4 2 3 4 5 6 5 5 4 4 5 4 6 4 3 4 7 9 7 6 6 5 1 1 5 4 1 3 6 4 3 6 6 7 9 11 9 12 21 26 27 30 34 38 40
17 14 14 12 12 14 13 9 10 11 7 6 10 11 9 9 10 8 3 4 3 4 3 3 2 5 6 7 16 16 5 7 14 11 7 5 6 6 5 3 1 3 4 3 1 2 2 1 2 3 3 5 4 4 4 6 5 4 5 5 6 6 6 7 6 4 4 5 6 3 3 5 3 5 7 4 6 9 11 12 12 18 24 28 33 37 39 41
17 14 12 10 11 14 14 13 12 10 9 10 12 11 10 10 9 5 3 4 3 3 1 3 4 7 10 14 17 9 6 11 11 4 3 2 5 4 5 5 4 4 3 4 3 4 2 1 2 4 3 4 4 2 3 6 4 5 4 2 4 6 6 7 5 5 4 3 7 5 4 4 4 6 7 3 5 8 9 14 15 18 25 30 35 40 42 44
16 13 10 8 10 13 15 15 13 12 11 12 12 10 10 10 6 1 4 2 3 3 2 4 6 8 14 18 13 5 6 6 2 4 7 8 9 5 4 4 5 4 4 5 6 4 1 2 4 5 3 4 4 3 5 6 5 4 2 3 4 4 4 5 5 4 3 3 7 9 5 4 5 5 5 3 5 8 8 11 13 20 29 32 35 39 41 41
15 12 8 6 9 13 15 16 14 14 13 12 13 12 10 7 1 4 4 1 1 3 4 4 5 8 12 14 9 5 4 4 5 8 9 6 6 5 3 3 2 2 2 3 5 5 4 5 4 3 5 5 4 5 6 7 6 2 4 4 4 3 3 3 3 4 3 3 9 13 8 5 5 4 5 5 6 7 6 7 10 17 26 30 31 35 38 38
14 10 7 5 8 12 14 15 15 15 14 14 16 13 6 2 3 5 2 1 1 4 6 4 3 6 9 8 7 6 4 4 4 3 4 3 3 3 2 1 1 1 2 4 4 3 4 5 4 5 9 7 4 4 6 7 6 1 1 1 3 4 1 0 1 3 3 5 8 12 9 7 7 5 5 7 10 9 6 7 9 10 18 26 28 31 36 38
13 9 6 5 7 11 13 15 16 16 15 16 17 9 1 2 4 2 1 4 2 2 5 3 2 5 8 7 5 4 4 4 3 1 2 2 2 3 2 3 1 1 3 3 3 4 3 6 5 5 10 11 6 3 4 5 3 3 3 3 2 2 2 1 3 3 4 7 8 8 5 6 8 6 6 10 12 10 7 8 10 9 13 21 25 28 32 35
11 8 6 4 7 11 13 15 18 18 17 19 14 4 5 4 2 2 3 3 1 3 4 4 6 7 8 7 4 3 3 3 2 1 1 1 2 4 5 5 6 4 4 2 1 3 4 5 5 3 6 11 11 5 3 4 3 5 4 4 4 2 1 1 3 3 4 6 8 7 4 4 7 6 11 14 14 15 15 17 19 19 21 24 24 24 28 32
10 8 7 4 6 11 13 16 19 19 20 20 10 4 6 3 1 2 2 2 3 4 2 3 10 10 4 2 3 3 2 3 2 3 2 2 3 3 4 4 6 5 2 1 1 1 2 6 4 4 2 7 12 10 7 5 3 4 4 4 4 3 2 3 2 3 4 5 6 5 4 5 5 5 12 16 18 21 24 27 27 26 29 31 30 26 25 29
10 8 7 4 6 10 13 16 19 20 21 17 6 5 5 1 2 2 2 3 3 4 6 7 9 8 3 1 3 2 1 2 3 3 2 2 2 3 3 3 4 4 3 2 1 2 2 6 5 6 6 5 7 8 7 6 2 3 4 4 4 4 2 2 3 4 3 2 4 3 3 5 5 5 6 10 14 16 19 22 21 22 27 30 30 27 24 27
9 8 5 5 7 11 13 17 18 20 20 12 5 4 1 3 2 1 2 2 2 4 8 9 4 2 3 2 3 2 1 3 3 3 2 3 4 5 3 2 4 6 5 4 2 1 2 5 4 4 6 7 9 7 7 8 4 2 4 5 4 5 4 2 4 5 2 1 4 3 3 5 5 7 8 7 7 8 10 12 12 17 24 25 25 28 26 26
9 6 4 6 9 11 14 16 18 19 17 7 5 2 2 3 3 3 2 4 5 3 4 5 1 0 2 2 3 2 1 3 3 2 2 2 4 4 3 3 4 8 9 6 2 2 3 5 6 3 5 7 9 7 5 9 8 3 4 7 4 3 3 2 3 3 2 2 4 3 4 6 6 6 8 8 7 7 8 8 8 14 19 19 23 29 29 27
9 3 4 8 9 11 14 16 17 17 11 5 3 1 1 2 3 5 5 7 5 1 1 2 1 1 1 2 3 3 3 3 2 3 2 1 3 3 2 3 4 9 13 9 3 2 3 3 7 3 4 6 2 2 3 7 10 5 3 3 3 3 2 1 3 3 2 2 3 4 4 4 6 4 5 9 11 10 10 8 8 10 13 16 22 28 29 28
7 2 4 9 9 10 14 15 16 14 6 4 3 2 1 2 5 7 10 8 3 1 1 3 2 0 1 2 4 5 4 5 5 4 2 1 2 2 2 2 4 7 11 10 4 2 2 1 4 3 2 3 3 1 2 4 6 6 5 2 1 2 2 1 2 2 2 2 2 4 4 3 5 6 6 9 11 12 11 10 10 10 13 18 22 26 27 27
6 2 4 9 9 10 13 13 12 10 4 2 1 2 2 3 7 12 13 6 2 1 2 2 2 1 2 3 5 4 3 5 6 4 2 1 2 4 4 5 2 3 8 9 4 1 1 1 3 4 3 2 2 2 4 4 3 4 5 2 1 1 2 1 3 2 2 3 2 2 4 5 5 5 7 9 10 11 11 11 10 10 15 23 25 27 28 28
6 2 4 10 10 10 12 9 6 5 3 0 2 2 3 4 7 13 13 6 3 5 4 3 3 3 4 4 4 3 3 6 6 3 2 3 3 4 4 6 4 2 6 6 3 2 1 2 2 4 4 2 5 4 4 5 4 3 5 5 4 3 2 1 3 4 2 3 3 3 3 6 5 3 5 6 4 6 8 7 7 10 16 23 26 28 29 29
6 2 5 10 10 11 10 4 3 3 2 1 4 6 8 7 6 9 10 6 3 4 2 2 3 3 4 4 3 3 4 6 6 3 3 5 5 5 6 6 5 3 4 3 3 4 3 1 2 4 5 5 8 8 5 5 3 2 4 4 4 4 3 3 3 4 3 2 1 2 2 6 6 3 2 1 4 6 6 5 6 11 17 21 23 24 25 27
6 2 5 9 8 10 9 3 2 3 1 3 7 8 9 6 3 6 7 5 3 1 1 2 3 3 3 3 2 5 6 5 6 4 4 5 5 10 15 9 3 1 3 3 2 5 4 1 3 4 4 5 7 6 4 3 1 2 4 3 3 3 4 4 4 3 2 3 2 1 2 6 5 3 2 4 8 9 8 9 10 13 19 23 24 24 21 22
6 1 4 9 8 8 7 2 2 3 3 5 5 6 7 4 3 6 5 5 5 1 1 2 3 4 4 2 2 6 6 4 5 5 5 4 4 11 17 10 5 2 3 4 5 7 4 1 2 1 4 4 3 3 3 2 2 3 4 3 4 2 2 2 2 2 2 4 3 3 3 6 5 5 5 7 9 9 9 13 14 14 19 24 25 23 21 19
6 0 4 9 7 7 7 4 2 2 4 6 5 5 5 2 5 10 9 7 6 2 1 4 4 4 3 2 3 7 6 5 5 4 4 4 6 11 15 10 10 8 8 10 12 12 4 1 3 1 1 1 1 1 2 2 3 3 2 3 3 3 5 5 2 3 4 4 4 5 4 6 8 10 9 9 9 9 11 15 15 16 21 23 22 22 21 19
6 2 5 8 6 8 8 6 6 4 2 4 4 4 4 3 6 12 9 4 4 7 4 5 3 1 2 4 7 9 6 6 7 5 5 5 4 8 16 19 13 14 16 15 18 13 1 2 5 4 4 4 4 5 4 1 1 3 4 5 5 7 11 10 6 5 5 4 3 4 4 5 10 11 10 10 10 11 12 13 14 17 21 20 19 21 22 20
5 1 3 6 4 4 5 4 9 7 3 3 2 2 5 6 7 8 6 3 9 13 6 4 1 2 3 8 9 8 7 6 8 7 7 6 5 9 19 25 16 14 19 16 18 10 0 2 6 6 8 9 7 8 6 1 2 5 5 8 10 12 13 12 10 7 6 4 4 5 4 3 8 10 11 12 13 12 11 11 14 19 22 21 20 23 24 22
6 1 1 3 3 1 1 5 11 10 5 3 1 2 5 7 6 6 6 7 12 12 4 1 3 5 5 6 5 6 9 10 8 6 4 4 6 9 13 15 9 4 11 12 12 7 0 2 5 5 8 11 9 10 8 3 4 6 6 9 13 15 15 14 13 9 7 6 5 6 5 5 8 11 12 13 11 11 14 17 21 24 24 21 20 24 26 24
7 2 1 2 3 4 5 9 12 9 4 3 1 2 4 5 6 5 5 6 8 7 2 2 8 11 10 7 3 4 6 8 9 10 7 5 7 7 6 6 6 7 6 5 6 3 1 3 4 6 6 9 9 8 6 4 4 5 7 9 11 13 13 13 12 8 7 7 6 6 7 8 8 9 11 14 16 17 20 23 24 23 19 16 19 23 25 24
8 4 5 6 5 6 6 8 9 5 3 3 2 2 3 3 4 7 6 5 5 5 2 4 10 13 13 9 4 6 9 8 10 13 11 8 7 4 2 3 1 4 4 1 2 2 2 3 2 4 4 6 7 7 6 5 3 3 7 9 8 8 8 8 7 4 5 6 6 5 5 7 7 5 8 15 20 20 18 19 21 20 14 13 18 23 24 22
7 6 7 6 4 3 3 5 5 2 2 2 1 3 4 3 5 9 8 7 8 6 5 7 11 12 12 12 8 9 13 12 14 20 19 13 11 9 5 3 1 2 2 1 1 1 3 2 2 1 2 4 5 6 7 2 2 4 7 8 6 5 5 5 5 5 6 6 5 4 3 5 5 5 8 13 15 13 12 13 17 18 15 14 18 22 24 22
8 6 7 6 3 2 2 4 3 2 2 2 2 2 4 7 10 10 7 5 7 11 10 9 11 10 9 12 12 16 23 27 30 34 31 23 20 19 17 15 11 5 2 0 1 2 3 1 2 1 3 4 3 3 2 2 5 3 5 5 5 5 3 3 4 5 4 3 5 4 4 4 4 7 9 12 13 11 12 17 19 20 19 19 20 22 23 22
Wind_Direction
24 24 23 21 18 16 13 9 5 0 357 354 351 348 345 341 338 334 331 329 328 326 325 325 324 322 321 320 319 316 316 319 317 311 303 295 289 284 282 279 276 285 292 290 282 264 250 243 241 238 235 223 219 221 215 213 201 190 188 216 227 212 204 184 179 195 171 207 236 212 199 179 196 201 157 150 151 145 141 137 156 182 194 218 247 252 237 208
21 20 19 17 14 10 6 1 357 353 350 348 346 344 341 338 335 332 331 329 326 323 322 321 321 321 321 322 321 317 317 320 321 318 314 306 298 289 269 266 271 290 306 308 304 279 257 242 234 232 227 216 213 212 209 207 199 194 172 213 227 213 188 179 182 190 176 200 221 227 218 188 185 183 161 159 166 157 147 136 156 180 197 219 228 218 213 198
14 13 11 10 6 0 357 354 350 347 346 344 343 342 339 337 334 333 332 329 326 324 322 320 321 321 322 324 320 318 321 324 327 335 19 22 18 38 107 262 273 296 323 329 331 317 270 243 231 225 216 213 210 204 202 196 198 207 196 220 232 199 177 188 189 193 195 200 208 222 215 197 199 187 169 169 181 178 173 158 156 179 197 205 197 192 197 192
5 5 3 2 357 352 349 347 345 344 344 343 342 340 337 336 334 333 332 330 327 324 323 322 323 324 325 326 322 322 329 330 340 99 81 56 50 39 4 303 293 307 335 339 340 351 334 275 240 218 206 211 209 205 212 199 196 206 201 227 219 164 185 201 193 199 203 202 209 213 208 211 202 195 192 171 171 214 198 186 188 206 212 204 191 188 194 194
1 1 357 353 349 346 345 343 343 343 343 342 342 339 337 336 334 334 333 332 329 326 325 324 324 325 328 331 325 326 340 339 117 128 112 51 354 314 304 299 304 314 336 344 342 354 351 325 264 206 199 203 197 200 228 213 208 244 223 235 220 171 191 202 195 202 206 207 214 205 199 208 190 195 212 183 170 221 210 197 205 218 217 212 201 191 193 199
358 358 352 347 344 344 343 341 341 342 342 341 340 337 335 334 333 334 335 335 332 330 327 324 323 324 330 336 329 328 337 302 167 165 235 275 299 299 293 285 294 313 329 344 330 334 351 2 8 196 187 207 205 202 238 225 216 248 244 248 237 203 198 200 198 204 207 205 208 204 209 195 166 192 215 203 189 208 219 207 203 208 205 211 210 197 199 210
354 353 348 343 342 341 339 340 341 342 341 340 338 337 336 334 333 335 339 338 330 325 321 319 320 322 333 340 333 321 277 255 245 252 261 272 280 280 279 274 279 298 311 327 316 319 341 15 7 226 139 135 233 224 268 267 243 242 259 309 281 233 220 209 203 205 208 207 211 214 221 195 171 195 213 209 196 195 216 204 197 200 198 207 210 209 225 232
347 348 344 340 340 339 338 341 343 344 342 340 340 340 339 338 338 340 345 346 333 322 315 317 321 326 338 346 344 323 287 280 273 261 263 264 262 258 254 261 269 280 297 322 335 335 340 35 38 17 77 188 311 290 305 295 270 253 260 321 326 290 265 243 224 213 210 213 218 218 224 215 206 213 220 219 205 198 209 200 198 203 201 207 213 222 235 232
342 343 341 339 339 340 342 344 345 345 343 341 342 342 339 338 338 339 342 347 344 337 330 329 330 335 342 346 346 330 311 315 292 265 267 255 241 232 230 248 262 271 283 292 347 355 352 23 26 19 352 290 320 317 312 256 242 286 305 320 327 313 300 281 263 231 216 214 214 214 229 228 221 223 232 228 215 208 212 207 206 205 200 205 214 225 230 226
337 339 338 338 338 341 344 344 344 344 342 341 342 340 337 336 334 335 339 345 349 348 345 345 343 347 346 339 341 336 339 339 303 277 265 239 222 219 222 238 256 267 271 254 19 4 347 341 333 343 328 294 303 298 292 233 293 327 325 319 292 289 292 282 284 262 238 222 213 206 222 233 228 227 239 231 220 214 211 208 208 203 201 207 212 219 225 228
334 335 335 335 338 343 344 343 344 343 342 342 341 339 336 333 329 332 338 342 346 348 348 349 347 350 345 328 313 283 318 314 295 287 264 237 219 218 221 232 250 263 266 245 191 351 338 330 318 323 318 311 323 296 279 285 319 321 320 318 285 285 287 271 279 270 257 234 219 207 216 237 233 233 232 226 220 214 209 210 209 204 206 210 213 216 218 228
330 330 332 333 338 342 342 343 344 342 342 342 340 339 336 330 326 331 336 334 339 344 347 350 343 342 340 319 301 307 319 308 294 290 285 272 246 237 236 229 235 253 266 263 269 330 335 325 318 312 296 316 327 295 296 322 324 311 311 311 288 310 289 252 257 260 249 233 219 199 214 240 229 237 231 218 218 215 211 215 215 209 207 208 211 213 213 223
326 328 330 332 338 343 343 344 343 342 342 342 342 341 337 330 326 331 333 328 332 340 345 346 337 332 330 318 323 5 14 17 359 317 301 295 280 267 258 245 236 246 260 271 287 316 321 312 307 300 298 307 302 282 306 324 324 301 273 209 266 310 273 230 232 253 250 243 214 179 208 234 226 237 229 211 219 219 216 219 217 208 204 201 202 205 209 216
325 326 330 334 340 343 343 344 343 342 342 343 344 343 338 330 327 331 329 326 329 336 341 339 332 330 323 321 24 40 35 39 31 14 346 309 301 286 265 254 248 250 259 268 282 299 306 306 303 299 293 275 268 293 314 330 330 300 270 231 202 234 246 215 209 225 234 245 214 185 220 232 226 238 227 212 218 219 216 216 209 201 198 197 198 201 207 211
328 326 332 339 342 342 344 344 342 343 343 343 346 346 339 332 330 328 325 326 326 329 335 333 333 335 321 322 50 39 18 22 23 22 8 337 328 329 287 257 249 250 256 261 272 286 294 293 290 292 288 276 272 300 334 347 340 351 266 268 203 216 242 250 226 207 216 244 214 194 227 237 229 237 229 219 220 220 215 209 201 196 195 197 199 203 208 212
336 335 340 343 341 343 344 343 343 344 345 345 347 348 339 330 328 325 326 328 326 328 333 335 339 337 321 324 32 14 359 357 5 12 5 359 348 351 23 354 266 250 252 259 270 280 280 277 275 267 259 258 217 104 16 341 321 351 222 235 249 233 229 263 265 217 205 236 228 211 229 238 232 232 228 221 220 219 216 209 197 194 195 196 200 203 208 213
345 342 345 345 342 344 344 344 344 344 347 348 349 352 343 329 325 325 334 334 330 330 337 347 337 323 312 0 358 341 340 337 348 360 13 5 345 339 2 26 37 257 253 264 273 275 266 255 234 236 249 201 146 105 67 279 272 305 283 252 304 276 199 240 285 246 185 187 232 241 240 239 237 218 213 214 218 216 216 214 198 194 196 196 200 204 207 210
347 343 345 345 343 345 345 345 344 345 350 351 352 356 351 337 329 341 344 339 338 338 353 359 345 328 292 343 343 330 326 321 332 5 35 358 340 340 335 339 357 337 343 301 271 270 238 237 154 190 334 285 155 134 177 235 204 103 30 306 313 304 201 208 258 287 68 172 218 241 249 244 246 234 213 212 214 211 214 217 204 197 199 197 198 202 205 207
345 343 346 346 346 347 347 346 347 349 350 354 356 358 8 10 18 17 348 342 352 7 2 341 346 1 278 318 337 332 319 313 319 32 35 1 353 339 328 325 320 322 20 42 303 6 176 227 74 190 256 216 190 179 193 174 91 84 78 172 279 303 250 236 250 274 16 315 231 234 249 247 239 244 237 219 214 211 216 218 209 198 198 200 199 201 205 208
346 346 347 347 348 348 348 349 351 353 354 359 359 6 27 20 22 347 343 345 357 344 324 325 320 290 292 322 350 351 335 306 284 239 10 350 337 328 327 318 312 333 25 122 293 352 79 142 236 225 242 185 205 232 210 151 26 334 313 273 280 291 274 278 282 301 5 336 252 241 256 262 244 239 245 230 219 215 217 217 213 204 199 201 200 202 206 210
349 348 348 349 350 349 350 352 354 358 4 6 6 25 41 20 18 334 338 340 339 334 330 337 321 304 327 350 3 3 357 330 285 254 313 317 312 321 314 328 26 348 310 261 261 332 34 263 248 207 113 154 212 236 234 332 327 300 282 288 282 271 270 274 277 292 328 320 273 272 274 279 266 247 245 236 225 218 216 211 213 214 210 208 205 205 208 215
351 349 349 352 351 349 351 355 358 2 9 12 18 40 47 21 16 341 334 314 310 333 343 345 341 348 2 9 9 6 357 344 316 304 332 307 291 287 234 99 75 272 309 16 354 339 349 272 257 182 166 180 213 228 163 170 265 277 277 296 276 283 293 277 268 284 300 282 273 287 283 278 263 257 252 239 231 227 222 216 213 212 212 213 213 212 213 219
352 350 350 354 352 351 354 355 359 4 7 15 25 35 31 12 357 342 333 298 296 319 342 345 347 360 14 24 10 1 352 349 322 323 355 331 297 287 204 149 174 240 345 103 168 273 278 257 230 170 175 175 252 247 115 138 222 235 228 269 264 303 358 269 289 311 312 291 267 287 290 275 242 260 271 246 237 237 233 227 221 215 212 216 219 217 215 215
353 350 350 354 354 354 357 353 357 1 357 11 23 24 11 354 344 339 328 289 279 308 332 342 342 358 15 12 1 356 341 314 290 287 311 316 313 302 251 203 166 154 241 211 187 216 245 237 213 197 177 164 233 289 114 167 257 241 210 211 239 226 208 240 296 328 320 301 270 271 291 279 220 224 263 259 245 243 241 234 227 222 218 220 221 217 216 215
352 350 350 356 360 360 360 355 353 356 351 358 6 2 352 339 337 336 330 296 271 310 334 343 339 358 358 355 356 346 321 293 281 283 295 295 282 269 263 221 166 202 236 216 194 239 260 238 217 249 239 172 195 247 175 178 226 281 229 214 221 216 217 241 295 345 338 299 267 196 258 274 237 211 227 247 252 243 240 233 226 226 221 219 219 214 215 216
351 350 351 357 6 6 5 2 350 353 357 340 338 340 333 329 333 328 331 57 315 308 337 338 333 346 337 337 339 335 323 284 288 291 287 281 271 260 255 229 178 220 220 187 192 252 264 224 186 197 224 195 198 235 214 169 173 268 238 212 214 208 213 235 252 269 207 258 268 139 240 276 327 284 235 232 249 241 232 227 226 229 224 219 219 216 215 215
352 352 355 0 10 10 10 8 352 353 0 337 329 332 325 324 328 317 334 49 349 303 317 307 301 327 320 316 328 333 314 301 315 298 263 276 281 240 224 244 213 237 212 151 286 258 217 244 123 130 183 195 206 237 217 158 154 247 236 194 197 199 208 220 217 207 214 258 289 303 260 273 302 278 262 249 261 256 235 226 226 228 225 222 222 221 221 220
353 353 359 7 11 10 9 5 356 355 349 333 329 329 324 322 317 309 81 70 325 312 322 297 302 312 314 318 324 322 266 298 322 301 214 296 297 229 212 237 207 230 222 163 249 254 172 135 179 155 164 205 214 219 183 154 171 246 251 209 211 207 211 214 200 214 222 247 278 265 216 252 266 257 266 254 244 260 243 228 226 225 223 220 222 223 225 225
353 355 3 14 13 12 9 3 359 354 340 332 335 332 324 321 311 34 82 80 311 337 346 316 313 315 325 327 329 328 289 281 208 263 287 293 282 250 234 243 193 210 231 195 225 244 200 226 200 165 173 213 208 193 169 166 213 252 344 336 274 237 225 216 192 214 224 194 251 252 197 219 268 251 251 235 222 240 238 232 228 227 226 221 221 223 224 227
352 355 3 18 14 12 11 6 358 348 336 332 337 334 327 322 17 69 41 355 306 327 312 312 314 325 339 338 335 348 317 249 232 277 295 299 278 254 259 267 171 169 253 242 239 239 240 257 248 204 216 199 175 200 184 187 227 303 8 341 324 307 228 216 193 189 217 220 245 249 217 201 257 244 220 224 225 220 216 233 235 231 232 227 223 223 224 226
350 353 3 19 15 11 10 7 359 349 339 333 335 335 329 336 74 77 49 284 291 314 318 314 304 326 345 344 325 328 330 279 266 273 294 311 300 292 317 298 312 17 305 280 272 268 246 242 249 224 216 194 164 218 211 210 233 279 11 14 6 329 315 107 235 171 206 242 242 246 227 205 235 238 218 235 240 230 213 229 240 241 241 235 227 226 226 226
350 354 1 14 15 12 8 4 0 354 344 337 338 339 66 61 26 74 272 321 325 302 319 310 285 323 332 331 305 288 306 299 281 215 247 284 295 282 230 197 220 338 286 263 290 315 268 231 229 216 213 197 176 224 227 224 224 157 155 129 94 311 12 51 242 186 208 243 244 244 222 215 242 234 221 244 251 246 233 233 243 252 258 252 239 231 229 226
358 0 5 18 14 8 5 2 0 357 349 344 344 2 96 69 20 245 276 319 280 274 314 310 303 313 322 324 303 273 286 277 285 323 273 299 311 273 239 213 190 198 246 247 4 333 305 270 238 207 220 200 186 203 210 201 197 166 161 145 146 168 124 224 244 214 222 250 256 247 217 242 268 232 208 229 247 250 250 251 253 257 263 267 262 249 239 228
8 11 7 16 14 2 1 1 359 357 352 347 349 59 70 58 244 276 298 262 262 294 325 319 310 312 316 294 285 301 303 275 300 342 320 324 320 281 267 241 197 189 204 115 16 235 271 296 244 182 221 196 194 208 193 161 173 181 160 157 175 176 181 210 210 205 223 254 257 240 209 222 245 222 199 210 230 239 246 252 254 258 262 266 269 264 250 235
8 13 8 14 11 0 0 1 359 358 353 348 5 74 69 135 246 304 275 249 281 308 309 310 310 309 312 256 276 291 249 274 327 342 292 253 248 248 257 249 192 164 129 136 230 175 216 276 249 221 242 213 209 215 173 144 183 201 159 154 194 201 212 244 230 218 212 255 257 213 202 219 230 263 228 211 226 229 237 248 251 255 260 262 265 262 252 240
358 2 18 27 10 3 4 1 358 356 352 355 45 71 96 200 214 209 215 275 305 308 311 314 309 291 310 303 285 297 207 268 312 328 283 235 244 234 220 251 191 167 158 162 204 168 194 269 277 271 262 227 220 215 161 162 190 182 171 188 206 191 180 214 250 250 211 246 272 228 220 248 253 273 264 235 237 238 238 245 241 247 255 259 262 263 257 243
355 360 38 32 12 8 5 0 359 355 352 15 79 83 224 217 202 194 234 310 304 309 327 322 331 303 314 313 289 305 333 291 274 273 275 258 259 225 201 254 196 183 192 178 196 222 193 267 285 271 269 255 229 214 188 190 186 129 169 194 193 177 171 179 239 260 243 244 277 246 218 230 230 255 256 231 236 256 250 244 240 244 251 256 261 265 265 253
0 34 54 25 11 6 2 0 358 350 350 43 55 341 222 245 221 218 279 305 304 350 20 285 264 135 310 312 295 304 318 300 268 268 270 236 246 210 183 245 205 203 208 189 196 247 177 266 286 254 260 300 296 189 235 229 207 201 223 185 146 165 189 222 219 221 226 234 270 270 255 230 221 237 233 218 228 245 248 249 254 252 251 254 258 264 267 260
6 95 46 14 7 5 358 356 358 353 5 75 31 309 220 268 264 273 296 298 287 43 239 246 232 204 276 264 284 305 300 280 290 292 255 190 239 224 174 215 223 220 206 178 174 234 149 219 291 298 271 311 351 121 193 253 221 223 263 320 72 152 144 196 230 198 202 220 243 273 289 270 234 222 202 205 216 228 238 244 248 250 254 256 258 261 262 256
9 107 37 7 3 6 354 349 2 14 37 97 258 253 245 280 286 300 308 296 224 216 230 217 215 264 278 266 277 288 270 275 291 283 224 222 268 251 206 189 223 229 186 175 183 222 115 164 254 298 313 312 307 201 183 200 191 202 229 229 146 145 106 96 266 244 193 185 185 234 272 272 250 217 205 211 211 213 222 233 245 255 261 265 266 265 262 255
20 84 14 1 5 6 354 355 21 35 50 124 237 248 290 306 297 306 315 309 238 237 234 218 223 248 273 285 286 276 279 290 286 263 236 237 234 250 227 190 192 171 147 167 212 198 188 188 211 284 304 268 247 233 186 187 186 191 205 194 182 182 136 137 264 275 242 185 181 190 239 267 260 216 205 220 231 231 220 214 237 260 267 274 277 274 268 260
35 57 354 358 5 359 355 22 68 50 98 322 305 282 284 296 296 304 317 323 267 242 252 236 229 242 261 262 258 277 296 295 281 261 242 242 221 236 250 203 187 191 137 150 217 169 148 179 228 265 262 245 253 250 230 224 234 266 243 207 160 151 145 157 219 260 273 268 228 162 245 268 262 236 197 274 324 297 262 224 241 270 279 289 293 289 277 263
27 67 0 356 359 3 11 49 25 13 174 290 305 289 281 281 284 300 312 323 308 278 328 274 235 218 238 243 253 291 302 288 266 247 253 272 240 244 254 234 195 224 142 140 191 150 128 165 233 275 286 270 268 264 265 273 212 239 257 219 149 161 179 184 206 215 239 271 283 62 282 266 267 290 334 326 314 306 290 271 264 272 282 292 301 303 293 269
3 85 10 4 5 15 30 70 325 332 309 312 310 297 297 279 273 298 300 305 305 279 157 275 244 207 237 259 241 277 297 287 258 242 249 273 256 270 275 249 210 246 193 190 170 152 162 186 172 307 332 322 331 3 343 326 170 208 241 190 162 203 256 276 251 185 203 241 196 147 237 255 275 309 325 324 316 313 298 278 266 262 274 286 298 307 303 279
359 340 3 10 27 44 62 96 67 335 313 332 321 298 312 285 286 308 302 279 284 290 237 274 260 217 245 287 255 269 273 245 249 251 247 267 273 293 302 269 216 209 220 208 163 150 179 193 137 151 166 161 146 185 232 222 193 222 238 183 156 189 239 257 234 179 214 232 180 168 229 277 308 315 319 321 312 305 302 292 279 268 268 277 294 311 310 284
16 10 349 360 33 68 86 86 46 24 307 336 325 299 335 327 305 321 317 275 319 349 309 261 277 267 280 327 317 301 282 232 236 250 264 282 280 293 308 301 264 215 214 201 159 144 167 216 189 210 212 211 211 210 219 162 190 235 208 194 203 210 217 220 215 202 199 200 209 214 236 293 305 304 308 310 303 297 297 293 282 272 268 276 300 321 316 288
31 22 1 357 358 48 77 51 25 12 316 327 327 294 338 333 318 333 332 310 343 343 312 223 22 5 323 336 328 306 302 283 253 253 269 274 280 297 305 308 295 221 204 183 154 148 48 230 212 221 233 248 253 249 259 292 232 246 207 191 213 227 222 214 222 224 180 175 256 248 197 243 283 289 291 289 290 291 288 282 278 280 283 292 313 325 316 291
34 47 84 15 327 325 39 339 343 342 314 282 250 294 336 338 338 342 325 315 329 333 324 230 336 325 312 327 321 288 306 313 291 282 292 270 291 316 311 317 334 171 174 160 155 162 177 240 211 202 237 257 259 258 262 240 233 249 228 209 216 227 224 213 219 216 167 170 231 235 219 240 273 284 283 281 286 288 285 282 281 283 289 299 320 326 315 295
38 25 259 336 313 259 265 299 316 326 311 279 287 341 338 328 330 329 312 314 320 317 316 303 306 315 319 315 297 277 299 314 306 305 317 302 296 310 300 307 7 58 100 142 179 191 268 257 210 188 239 270 267 267 263 226 239 256 247 238 225 222 221 216 221 211 177 190 215 225 252 266 263 268 279 291 299 297 292 289 283 282 287 303 324 326 313 298
43 21 332 328 310 276 279 303 316 323 317 323 330 311 302 288 311 324 308 279 283 302 327 310 304 312 315 306 279 253 259 270 281 285 297 310 303 295 259 244 309 31 50 113 218 221 211 257 226 175 223 268 258 263 257 217 217 271 276 272 252 229 224 227 237 209 184 220 227 211 254 275 264 270 294 300 302 301 299 293 285 284 291 311 322 320 312 304
45 19 349 336 311 286 308 319 324 331 323 343 344 316 320 304 315 330 313 251 230 249 283 306 311 313 310 304 288 268 273 278 274 275 277 274 260 250 251 251 258 13 26 91 321 244 204 267 324 150 249 264 227 245 261 265 6 311 291 303 295 252 224 229 240 215 205 220 212 205 256 268 276 316 316 304 305 306 298 290 287 294 307 318 317 313 312 312
37 25 6 349 305 285 345 328 329 358 309 284 297 316 295 290 305 323 322 284 256 259 266 287 306 312 309 303 298 301 305 302 294 289 286 275 257 244 243 251 260 279 293 195 296 232 198 257 307 288 285 283 275 271 263 52 29 308 274 299 293 272 271 281 275 265 253 210 181 210 238 243 291 320 317 311 315 316 303 293 292 299 307 314 316 311 310 316